Minot AFB, ND

12:49 PM CDT on August 18, 2017 (GMT -0500)
Minot Air Force Base

Weather History for KMIB - October, 2012

Change the Weather History Date:

Thursday, October 4, 2012

  Actual Average Record
Temperature  
Mean Temperature 34 °F -  
Max Temperature 43 °F 59 °F 80 °F (1996)
Min Temperature 23 °F 34 °F 17 °F (2004)
Degree Days  
Heating Degree Days 30    
Moisture  
Dew Point 28 °F    
Average Humidity 75    
Maximum Humidity 87    
Minimum Humidity 49    
Precipitation  
Precipitation 0.00 in - - ()
Sea Level Pressure  
Sea Level Pressure 30.36 in    
Wind  
Wind Speed 16 mph (NW)    
Max Wind Speed 23 mph    
Max Gust Speed 34 mph    
Visibility 10 miles    
Events      
Averages and records for this station are not official NWS values.
T = Trace of Precipitation, MM = Missing Value Source: NWS Daily Summary

Daily Weather History Graph

Daily Weather History Graph

Search for Another Location

Airport or City:

Trip Planner

Search our weather history database for the weather conditions in past years. The results will help you decide how hot, cold, wet, or windy it might be!

Date:

Astronomy

Oct. 04, 2012 Rise Set
Actual Time 7:49 AM CDT 7:17 PM CDT
Civil Twilight 7:18 AM CDT 7:48 PM CDT
Nautical Twilight 6:42 AM CDT 8:24 PM CDT
Astronomical Twilight 6:05 AM CDT 9:01 PM CDT
Moon 9:32 PM CDT (10/4) 12:30 PM CDT (10/4)
Length of Visible Light 12h 29m
Length of Day
11h 27m
Waning Gibbous, 82% of the Moon is Illuminated
Oct 4
Waning Gibbous
Oct 8
Last Quarter
Oct 15
New
Oct 21
First Quarter
Oct 29
Full

Hourly Weather History & Observations

Time (CDT) Temp. Windchill Dew Point Humidity Pressure Visibility Wind Dir Wind Speed Gust Speed Precip Events Conditions
12:55 AM 37.6 °F 29.1 °F 33.3 °F 84% 30.33 in 10.0 mi North 13.8 mph - 0.00 in   Clear
1:55 AM 37.2 °F 28.3 °F 33.3 °F 86% 30.33 in 10.0 mi North 15.0 mph - N/A   Partly Cloudy
2:55 AM 36.9 °F 27.8 °F 32.7 °F 85% 30.34 in 10.0 mi NNW 15.0 mph - N/A   Scattered Clouds
3:55 AM 36.5 °F 26.7 °F 32.0 °F 84% 30.35 in 10.0 mi NNW 17.3 mph - N/A   Overcast
4:36 AM 35.6 °F 26.6 °F 32.0 °F 87% 30.35 in 10.0 mi NW 13.8 mph - N/A   Overcast
4:54 AM 35.6 °F 26.2 °F 32.0 °F 87% 30.35 in 10.0 mi NW 15.0 mph - N/A   Overcast
4:55 AM 35.8 °F 26.9 °F 32.0 °F 86% 30.36 in 10.0 mi NW 13.8 mph - N/A   Overcast
5:07 AM 35.6 °F 26.6 °F 32.0 °F 87% 30.36 in 10.0 mi NW 13.8 mph - N/A   Overcast
5:10 AM 35.6 °F 26.2 °F 32.0 °F 87% 30.36 in 10.0 mi NW 15.0 mph - N/A   Overcast
5:55 AM 33.8 °F 23.5 °F 30.0 °F 86% 30.36 in 10.0 mi NW 16.1 mph - N/A   Mostly Cloudy
5:59 AM 33.8 °F 23.9 °F 30.2 °F 87% 30.36 in 10.0 mi NW 15.0 mph - N/A   Mostly Cloudy
6:08 AM 33.8 °F 24.3 °F 30.2 °F 87% 30.36 in 10.0 mi NW 13.8 mph - N/A   Mostly Cloudy
6:10 AM 33.8 °F 23.9 °F 30.2 °F 87% 30.36 in 10.0 mi NW 15.0 mph - N/A   Mostly Cloudy
6:20 AM 33.8 °F 23.9 °F 30.2 °F 87% 30.37 in 10.0 mi NW 15.0 mph - N/A   Mostly Cloudy
6:47 AM 33.8 °F 23.9 °F 30.2 °F 87% 30.36 in 10.0 mi NW 15.0 mph - N/A   Overcast
6:55 AM 34.3 °F 24.6 °F 30.2 °F 85% 30.36 in 10.0 mi NW 15.0 mph - N/A   Overcast
7:32 AM 33.8 °F 23.5 °F 30.2 °F 87% 30.36 in 10.0 mi NNW 16.1 mph - N/A   Mostly Cloudy
7:55 AM 34.3 °F 24.6 °F 30.4 °F 85% 30.36 in 10.0 mi NW 15.0 mph - N/A   Mostly Cloudy
8:13 AM 33.8 °F 23.5 °F 30.2 °F 87% 30.36 in 10.0 mi NNW 16.1 mph - N/A   Scattered Clouds
8:55 AM 34.5 °F 23.4 °F 29.8 °F 83% 30.36 in 10.0 mi NW 19.6 mph - N/A   Mostly Cloudy
9:55 AM 36.3 °F 25.5 °F 30.6 °F 80% 30.37 in 10.0 mi NNW 20.7 mph 27.6 mph N/A   Mostly Cloudy
10:55 AM 37.6 °F 26.6 °F 30.6 °F 76% 30.37 in 10.0 mi NNW 23.0 mph - N/A   Overcast
11:55 AM 39.9 °F 30.8 °F 29.3 °F 66% 30.37 in 10.0 mi NNW 18.4 mph - N/A   Partly Cloudy
12:24 PM 41.0 °F 32.2 °F 28.4 °F 61% 30.37 in 10.0 mi North 18.4 mph 27.6 mph N/A   Mostly Cloudy
12:44 PM 39.2 °F 29.8 °F 28.4 °F 65% 30.37 in 10.0 mi NNW 18.4 mph 26.5 mph N/A   Mostly Cloudy
12:45 PM 41.0 °F 32.5 °F 28.4 °F 61% 30.37 in 10.0 mi NNW 17.3 mph 26.5 mph N/A   Mostly Cloudy
12:54 PM 41.0 °F 31.4 °F 28.4 °F 61% 30.37 in 10.0 mi NNW 21.9 mph - N/A   Overcast
12:55 PM 40.3 °F 30.4 °F 28.2 °F 62% 30.37 in 10.0 mi NNW 21.9 mph - N/A   Overcast
1:55 PM 41.7 °F 32.9 °F 27.5 °F 57% 30.36 in 10.0 mi NW 19.6 mph 26.5 mph N/A   Overcast
2:03 PM 41.0 °F 31.9 °F 26.6 °F 57% 30.30 in 10.0 mi NNW 19.6 mph 26.5 mph N/A   Overcast
2:55 PM 41.5 °F 32.4 °F 25.5 °F 53% 30.35 in 10.0 mi NW 20.7 mph 34.5 mph N/A   Mostly Cloudy
3:55 PM 42.6 °F 33.8 °F 25.7 °F 51% 30.35 in 10.0 mi NNW 20.7 mph - N/A   Mostly Cloudy
4:55 PM 41.9 °F 33.1 °F 23.7 °F 49% 30.34 in 10.0 mi NNW 19.6 mph - N/A   Partly Cloudy
5:55 PM 41.2 °F 32.1 °F 23.5 °F 50% 30.35 in 10.0 mi NNW 19.6 mph 24.2 mph N/A   Partly Cloudy
6:55 PM 39.6 °F 32.5 °F 24.4 °F 55% 30.35 in 10.0 mi NNW 11.5 mph - N/A   Clear
7:55 PM 35.2 °F 28.1 °F 23.9 °F 63% 30.37 in 10.0 mi NNW 9.2 mph - N/A   Clear
8:55 PM 28.8 °F 21.7 °F 21.9 °F 76% 30.38 in 10.0 mi NW 6.9 mph - N/A   Clear
9:55 PM 28.2 °F 18.9 °F 21.6 °F 76% 30.39 in 10.0 mi WNW 10.4 mph - N/A   Clear
10:55 PM 27.9 °F 19.1 °F 20.7 °F 74% 30.39 in 10.0 mi NW 9.2 mph - N/A   Clear
11:55 PM 23.4 °F 14.3 °F 18.3 °F 81% 30.39 in 10.0 mi NW 8.1 mph - N/A   Clear